Akron, CO

5:48 PM MDT on May 21, 2018 (GMT -0600)
Akron-Washington County

Weather History for KAKO - December, 2013

Change the Weather History Date:

Friday, December 20, 2013

  Actual Average Record
Temperature  
Mean Temperature 18 °F 28 °F  
Max Temperature 26 °F 39 °F 66 °F (1941)
Min Temperature 10 °F 16 °F -16 °F (1983)
Degree Days  
Heating Degree Days 47    
Month to date heating degree days 791  
Cooling Degree Days 0    
Month to date cooling degree days 0  
Moisture  
Dew Point 11 °F    
Average Humidity 76    
Maximum Humidity 92    
Minimum Humidity 60    
Precipitation  
Precipitation 0.00 in 0.01 in 0.02 in (1951)
Month to date precipitation 0.02 0.29  
Year to date precipitation 16.98 16.63  
Snow  
Snow 0.00 in - - ()
Snow Depth -    
Sea Level Pressure  
Sea Level Pressure 29.89 in    
Wind  
Wind Speed 8 mph (West)    
Max Wind Speed 16 mph    
Max Gust Speed 19 mph    
Visibility 10 miles    
Events      
T = Trace of Precipitation, MM = Missing Value Source: NWS Daily Summary

Daily Weather History Graph

Daily Weather History Graph

Search for Another Location

Airport or City:

Astronomy

Dec. 20, 2013 Rise Set
Actual Time 7:11 AM MST 4:30 PM MST
Civil Twilight 6:40 AM MST 5:00 PM MST
Nautical Twilight 6:06 AM MST 5:34 PM MST
Astronomical Twilight 5:33 AM MST 6:07 PM MST
Moon 7:53 PM MST (12/20) 9:06 AM MST (12/20)
Length of Visible Light 10h 20m
Length of Day
9h 18m
Waning Gibbous, 90% of the Moon is Illuminated
Dec 20
Waning Gibbous
Dec 25
Last Quarter
Jan 1
New
Jan 7
First Quarter
Jan 15
Full

Hourly Weather History & Observations

Time (MST) Temp. Windchill Dew Point Humidity Pressure Visibility Wind Dir Wind Speed Gust Speed Precip Events Conditions
12:12 AM 12.0 °F -2.7 °F 9.0 °F 88% 29.87 in 10.0 mi North 12.7 mph - N/A   Overcast
12:53 AM 12.0 °F -1.3 °F 9.0 °F 88% 29.97 in 10.0 mi NNW 10.4 mph - N/A   Overcast
1:13 AM 12.0 °F -3.4 °F 9.0 °F 88% 29.87 in 10.0 mi NW 13.8 mph - N/A   Overcast
1:53 AM 12.0 °F -2.0 °F 9.0 °F 88% 29.96 in 10.0 mi NW 11.5 mph - N/A   Overcast
2:09 AM 12.9 °F -0.2 °F 10.0 °F 88% 29.85 in 10.0 mi NW 10.4 mph - N/A   Overcast
2:53 AM 12.9 °F -0.9 °F 9.0 °F 84% 29.96 in 10.0 mi NW 11.5 mph - N/A   Overcast
3:53 AM 10.9 °F 2.9 °F 8.1 °F 88% 29.98 in 10.0 mi West 4.6 mph - N/A   Clear
4:53 AM 10.0 °F 0.4 °F 7.0 °F 87% 29.98 in 10.0 mi NNW 5.8 mph - N/A   Scattered Clouds
5:09 AM 10.9 °F - 7.0 °F 84% 29.83 in 10.0 mi Calm Calm - N/A   Mostly Cloudy
5:53 AM 12.9 °F 5.2 °F 9.0 °F 84% 29.98 in 10.0 mi WNW 4.6 mph - N/A   Overcast
6:53 AM 14.0 °F 3.9 °F 10.0 °F 84% 29.97 in 10.0 mi NNW 6.9 mph - N/A   Overcast
7:53 AM 14.0 °F - 10.0 °F 84% 29.98 in 10.0 mi Calm Calm - N/A   Overcast
8:53 AM 15.1 °F - 10.0 °F 80% 29.99 in 10.0 mi Calm Calm - N/A   Overcast
9:53 AM 17.1 °F - 10.0 °F 74% 29.98 in 10.0 mi Calm Calm - N/A   Overcast
10:53 AM 19.0 °F 10.0 °F 10.9 °F 71% 29.94 in 10.0 mi South 6.9 mph - N/A   Overcast
11:53 AM 21.0 °F 16.2 °F 10.9 °F 65% 29.91 in 10.0 mi WSW 3.5 mph - N/A   Overcast
12:53 PM 23.0 °F 17.0 °F 12.0 °F 63% 29.89 in 10.0 mi Variable 4.6 mph - N/A   Overcast
1:53 PM 24.1 °F 18.2 °F 12.9 °F 62% 29.85 in 10.0 mi SSW 4.6 mph - N/A   Overcast
2:53 PM 25.0 °F 18.1 °F 12.9 °F 60% 29.82 in 10.0 mi South 5.8 mph - N/A   Overcast
3:15 PM 26.1 °F 20.5 °F 15.1 °F 63% 29.68 in 10.0 mi WSW 4.6 mph - N/A   Scattered Clouds
3:53 PM 25.0 °F 20.7 °F 16.0 °F 69% 29.83 in 10.0 mi WSW 3.5 mph - N/A   Clear
4:53 PM 19.9 °F 11.1 °F 14.0 °F 78% 29.86 in 10.0 mi WNW 6.9 mph - N/A   Clear
5:53 PM 17.1 °F 10.0 °F 12.9 °F 84% 29.86 in 10.0 mi WSW 4.6 mph - N/A   Clear
6:53 PM 17.1 °F 7.6 °F 12.9 °F 84% 29.86 in 10.0 mi SSW 6.9 mph - N/A   Clear
7:53 PM 18.0 °F 9.8 °F 15.1 °F 88% 29.86 in 10.0 mi SW 5.8 mph - N/A   Mostly Cloudy
8:53 PM 17.1 °F 6.6 °F 12.9 °F 84% 29.86 in 10.0 mi SW 8.1 mph - N/A   Partly Cloudy
9:53 PM 17.1 °F 5.8 °F 12.9 °F 84% 29.84 in 10.0 mi West 9.2 mph - N/A   Partly Cloudy
10:53 PM 16.0 °F 3.6 °F 12.9 °F 88% 29.81 in 10.0 mi West 10.4 mph - N/A   Clear
11:53 PM 19.9 °F 11.1 °F 17.1 °F 89% 29.78 in 10.0 mi West 6.9 mph - N/A   Overcast